{"data":{"norad_id":59489,"epoch":"2026-09-21T10:27:07.956864Z","epoch_age_seconds":84491,"freshness":"FRESH","line1":"1 59489U 24071F   26264.43550876  .00000340  00000+0  21875-4 0  9990","line2":"2 59489  43.0031 314.1674 0001468 253.2460 106.8231 15.27574034138141","mean_motion":15.27574034,"eccentricity":0.0001468,"inclination_deg":43.0031,"raan_deg":314.1674,"arg_perigee_deg":253.246,"mean_anomaly_deg":106.8231,"bstar":2.1875e-5,"rev_number":13814,"period_min":94.267116876117,"perigee_km":482.05973570666,"apogee_km":484.07418518945,"semimajor_km":6861.2039604481,"source":"CELESTRAK","updated_at":"2026-09-22T09:00:48.953260Z"}}